Wind_Speed
21 23 23 25 29 27 24 22 24 24 26 25 26 32 34 38 38 48 46 45 43 43 34 32 30 23 27 30 28 22 17 26 24 20 14 10 10 12 10 7 10 15 15 15 19 13 12 9 4 8 8 9 12 15
21 22 28 27 26 24 24 25 26 27 26 27 26 27 33 38 38 42 49 44 40 42 30 33 36 32 33 30 26 31 28 18 19 15 15 9 10 10 12 8 14 9 12 11 12 12 7 9 3 12 18 21 22 21
20 22 23 23 25 27 27 27 26 26 26 28 28 27 33 35 38 41 45 42 39 40 39 35 23 30 25 27 21 21 27 25 22 14 13 12 10 12 12 14 11 11 12 13 8 9 9 12 21 21 25 26 27 27
20 20 24 25 24 24 23 22 22 23 24 23 25 29 30 32 37 37 45 39 40 41 41 29 38 21 29 21 19 14 15 19 24 22 17 12 12 11 11 10 10 12 10 10 15 15 19 17 26 24 24 25 23 23
16 21 23 22 26 26 23 19 18 18 19 21 26 23 28 32 34 37 38 39 40 44 21 36 21 23 28 22 14 11 23 21 18 25 23 20 16 13 14 15 13 12 14 15 16 19 22 24 29 28 27 30 31 27
15 21 29 32 29 25 19 16 17 15 18 24 24 25 27 35 36 37 37 34 32 37 27 11 27 24 28 22 19 22 26 29 24 18 19 19 18 18 9 13 18 23 20 22 25 22 25 28 29 29 29 28 27 27
18 25 29 28 30 25 9 11 17 16 21 23 28 31 27 34 36 39 39 41 33 28 32 20 12 26 23 19 25 27 29 25 27 27 22 25 25 23 18 13 22 20 20 24 26 26 24 25 24 26 30 30 30 32
16 22 26 27 27 21 17 17 18 23 24 27 33 31 30 38 35 31 28 22 28 32 25 8 9 18 27 32 26 23 25 23 22 22 24 23 22 20 14 26 30 28 25 26 22 21 23 23 24 22 23 26 30 25
13 16 23 25 24 20 21 22 25 27 30 35 36 36 34 30 31 29 26 23 24 23 13 13 14 12 21 26 31 30 27 26 23 27 26 12 21 18 25 33 33 27 23 20 19 23 25 26 28 25 27 29 29 28
13 14 18 20 22 16 16 22 28 31 39 38 39 39 37 30 30 30 29 25 22 15 10 13 15 10 6 21 22 29 26 24 13 16 22 33 27 27 28 30 28 26 25 27 27 26 27 27 27 26 27 29 29 27
10 14 18 19 21 22 26 32 36 42 39 38 37 32 31 25 25 13 12 9 9 8 13 14 14 13 7 19 19 18 10 9 7 12 14 10 20 31 31 29 30 31 33 33 31 31 30 31 30 30 28 30 28 26
8 11 16 20 21 22 22 24 31 38 36 34 40 39 31 18 6 6 9 9 7 8 9 11 11 10 16 25 16 6 5 7 3 12 9 8 22 21 23 26 27 26 26 26 27 26 24 25 25 26 26 27 31 26
8 7 10 16 18 20 22 15 27 21 32 38 21 16 8 4 5 7 7 8 8 15 15 16 19 21 18 12 9 6 5 5 9 13 8 11 15 18 19 20 21 22 23 23 23 22 22 22 24 24 24 22 22 20
12 12 10 11 15 21 23 28 34 35 29 10 8 6 3 5 5 9 11 15 19 21 19 17 18 6 15 7 6 6 7 7 6 5 6 11 14 14 15 16 17 17 17 18 18 17 16 16 15 15 15 13 11 10
12 16 18 19 23 26 26 28 29 20 7 3 2 2 4 12 19 16 16 19 20 18 18 16 11 10 10 3 3 4 6 5 6 6 9 9 10 11 11 11 9 9 8 6 6 5 4 4 3 4 5 5 6 5
11 15 23 25 25 23 19 16 14 8 5 4 0 12 20 20 18 16 14 14 15 15 14 10 6 4 5 4 5 6 5 4 6 7 6 5 5 5 4 3 1 2 4 4 5 6 7 9 9 9 11 12 12 11
9 11 17 26 24 22 18 11 7 2 5 5 14 19 19 17 16 15 13 12 11 11 10 5 5 5 3 4 4 4 5 5 6 4 3 3 2 4 7 9 11 13 12 11 10 10 10 10 11 11 10 12 11 10
5 12 17 20 26 22 13 5 1 1 6 18 19 19 17 15 14 13 11 10 9 9 10 7 4 7 4 3 4 5 9 9 8 7 6 7 9 10 11 10 9 8 7 7 7 7 7 7 6 4 4 4 3 0
8 17 19 19 18 18 14 10 4 7 18 18 18 17 14 13 12 10 10 10 10 8 6 6 3 6 8 11 13 11 10 8 7 6 6 7 8 8 7 6 4 3 3 2 2 2 2 2 0 2 4 5 5 6
12 21 22 21 19 15 10 11 13 16 20 19 17 16 14 11 10 9 7 5 8 10 7 9 19 17 15 13 11 9 7 6 6 6 5 5 5 4 4 3 3 3 2 2 2 3 4 6 8 8 8 8 8 9
22 24 25 23 19 14 12 15 11 18 19 16 14 13 12 12 11 9 10 14 16 22 24 21 17 14 13 11 9 8 6 5 4 3 3 3 4 5 5 5 5 5 5 6 7 9 10 10 10 9 9 10 10 11
28 24 25 23 14 17 14 15 16 17 15 16 12 11 14 15 17 18 19 19 22 21 19 18 15 13 11 9 7 5 3 2 1 1 2 3 4 5 6 7 8 9 10 11 12 12 11 11 11 11 11 12 12 12
26 24 23 19 11 7 17 19 21 19 14 19 23 23 23 25 23 22 16 16 19 18 15 14 11 9 8 6 4 3 2 2 3 3 4 5 7 8 9 10 11 11 12 12 12 12 12 12 12 12 12 11 11 10
24 20 15 9 8 9 24 18 18 20 24 23 22 22 21 21 17 11 17 15 14 13 12 10 8 6 5 4 3 3 4 5 6 7 7 8 9 10 10 10 11 11 11 11 11 11 11 11 11 10 10 9 7 6
14 11 6 8 9 19 18 20 22 24 25 26 23 18 18 14 12 13 15 13 11 9 8 7 5 4 3 3 3 4 5 6 7 8 8 9 9 9 10 10 11 10 10 10 10 10 10 9 9 7 6 6 6 7
6 7 8 13 18 18 16 23 23 30 29 21 15 16 16 13 6 8 12 10 9 7 5 4 2 2 3 5 6 8 8 8 7 7 8 9 10 10 10 10 10 10 10 10 10 9 8 7 6 5 6 7 9 10
5 7 16 21 23 25 28 25 31 28 19 10 18 20 10 5 5 11 11 9 7 5 4 3 4 6 7 8 8 9 9 9 9 10 10 10 10 11 11 11 11 11 10 9 8 6 6 5 6 7 9 10 10 10
12 22 23 26 28 28 31 32 28 18 11 16 21 10 7 7 9 13 11 9 7 6 5 4 5 6 7 7 8 9 9 10 10 11 11 11 11 11 11 10 10 9 8 6 5 5 5 6 8 9 10 11 11 11
25 26 25 26 25 28 29 24 16 13 13 19 13 9 9 12 13 12 11 9 7 5 4 4 5 6 7 8 8 9 10 11 11 11 11 11 10 10 10 9 8 7 6 6 6 6 7 8 9 11 11 11 11 12
28 28 28 26 26 25 22 16 12 14 17 13 10 13 14 14 14 12 10 8 5 3 3 4 6 7 7 8 9 11 12 12 12 12 11 11 10 10 9 8 8 7 7 7 7 8 9 10 11 11 11 12 12 13
28 28 27 26 24 21 17 15 18 17 16 16 15 12 12 13 13 11 8 6 3 3 4 5 6 8 8 9 10 12 12 13 13 13 12 12 11 10 10 9 8 8 8 8 9 10 10 11 11 11 12 13 14 15
27 26 26 26 24 21 21 21 20 20 18 17 16 14 13 11 10 8 6 4 3 3 5 6 7 8 9 10 11 12 12 13 14 14 13 12 11 10 10 9 9 9 9 9 9 10 10 10 11 12 13 14 15 17
22 20 19 21 24 24 24 24 22 19 16 16 14 13 11 8 6 4 3 3 3 5 6 7 8 9 9 11 12 12 13 14 13 13 13 12 11 10 10 9 9 10 10 10 10 10 10 11 13 14 15 17 18 20
Wind_Direction
303 300 296 294 294 291 286 277 267 258 253 250 244 234 229 220 216 217 221 218 216 224 228 227 229 223 232 235 234 233 225 233 229 224 222 214 215 210 226 217 177 188 192 206 221 239 258 250 230 212 242 293 291 290
308 307 304 299 297 287 275 265 261 256 255 249 241 235 225 216 211 213 219 219 215 219 228 231 235 236 238 252 251 249 246 237 224 207 207 206 206 206 216 231 220 225 202 207 203 226 225 200 223 277 293 298 305 297
316 311 310 307 298 290 284 276 265 259 250 242 240 228 219 212 205 209 211 215 210 219 228 231 225 224 232 231 261 236 233 225 221 224 212 211 215 216 216 228 228 235 226 234 244 235 253 260 272 275 285 289 296 298
326 327 325 315 302 292 285 279 255 247 242 234 217 210 212 203 198 199 205 207 206 213 221 232 228 235 220 220 225 216 226 224 227 223 213 213 205 207 216 225 217 223 237 249 258 262 260 261 272 267 278 282 285 292
341 338 328 327 318 304 284 271 249 241 224 210 200 206 196 187 186 193 199 207 207 203 224 228 237 233 234 210 225 252 224 227 226 225 221 216 215 223 228 225 232 239 246 251 261 261 266 267 270 270 272 276 282 292
343 336 338 337 329 314 288 263 228 214 198 189 191 189 175 176 179 180 187 204 199 208 207 204 229 226 210 224 239 224 226 232 232 229 214 216 222 218 229 230 234 241 250 253 257 268 270 271 271 271 278 280 281 287
346 352 349 351 348 344 283 209 188 177 175 178 176 166 167 172 176 184 188 195 200 199 209 221 223 205 212 200 208 220 230 238 239 239 235 232 234 235 240 238 252 252 259 266 278 277 271 271 272 270 267 275 280 287
343 357 4 9 19 37 82 129 146 151 151 148 151 157 152 165 176 178 185 175 177 181 163 167 182 193 204 214 214 213 221 227 233 239 240 237 235 236 248 253 259 265 270 274 272 269 274 282 277 284 280 266 272 278
352 8 22 24 36 58 91 109 124 140 147 142 145 140 135 151 156 146 160 173 176 182 173 187 181 189 195 205 212 210 210 220 233 238 237 199 229 229 240 252 258 263 271 269 266 274 279 280 281 280 279 280 278 277
21 18 18 36 53 61 81 107 124 136 137 137 136 136 141 110 132 129 135 152 165 174 183 177 176 165 181 209 208 216 227 223 244 225 234 232 225 233 241 245 254 264 267 266 271 273 275 277 281 275 286 288 284 279
35 33 47 50 58 74 98 108 116 130 127 130 135 146 141 126 128 114 133 143 165 187 205 200 195 199 213 177 199 186 189 185 178 172 186 184 223 241 248 256 267 273 270 273 277 277 274 273 275 275 281 282 291 282
79 47 62 67 76 93 111 108 126 130 133 136 134 135 133 139 117 118 134 146 152 182 178 190 198 191 179 193 189 200 170 159 173 175 190 225 234 243 252 257 261 271 281 282 282 281 281 274 274 275 278 275 281 287
107 109 70 94 91 101 124 107 142 116 140 128 105 112 119 117 133 153 156 158 160 153 158 154 146 162 157 157 166 165 172 174 156 181 214 235 246 252 261 270 275 277 277 277 281 282 281 277 272 272 273 274 279 284
130 144 124 108 93 108 118 123 134 145 134 115 102 127 136 145 149 148 154 147 144 146 151 151 168 136 140 143 147 167 166 163 195 216 228 256 265 270 278 282 282 282 283 281 278 277 276 274 270 264 261 260 259 259
136 139 140 128 115 108 123 134 141 129 94 104 137 59 94 127 124 127 131 141 140 148 151 151 157 161 161 147 177 156 177 205 211 222 245 256 268 276 281 283 283 282 280 283 281 273 265 252 237 220 195 165 143 142
142 143 152 140 140 139 139 118 146 175 172 215 313 129 132 124 121 126 130 144 156 155 154 159 162 157 187 203 199 201 186 200 224 224 233 257 281 294 305 310 11 86 93 104 109 110 110 110 112 118 117 114 111 110
142 160 160 169 162 155 153 136 95 117 183 130 133 138 130 126 125 127 128 135 146 163 165 154 193 205 201 212 200 205 214 209 195 206 212 207 157 125 122 120 119 115 112 110 110 110 113 114 112 110 118 120 118 117
184 175 169 171 173 168 171 164 261 13 143 138 138 139 137 133 130 133 139 147 157 177 197 221 209 188 180 183 199 185 160 162 167 167 163 155 149 144 139 134 131 128 126 126 124 125 124 113 108 125 127 123 117 165
170 170 168 168 169 177 191 200 223 130 132 134 138 138 141 145 147 159 174 188 189 192 203 172 158 158 143 135 134 139 144 148 148 150 154 162 168 168 163 160 157 150 141 142 142 118 110 114 259 300 302 297 310 331
176 167 161 158 158 163 159 154 152 135 141 140 144 148 151 154 160 168 171 189 187 177 172 134 125 123 124 127 130 133 138 141 142 147 161 181 201 213 222 239 254 261 259 253 256 268 278 289 292 299 313 323 320 310
163 161 158 155 153 164 147 147 140 145 144 149 155 156 160 164 156 147 127 120 127 133 125 123 123 124 124 124 125 128 130 131 140 161 187 216 241 259 265 263 259 260 262 266 272 278 283 290 297 299 297 297 297 298
156 156 161 160 157 150 153 154 151 151 146 150 153 156 142 141 138 132 127 137 129 125 126 127 128 127 123 119 115 110 101 104 119 242 258 266 269 273 274 275 276 277 279 281 284 286 287 286 288 290 292 294 297 299
151 152 160 163 163 136 149 150 150 152 141 145 137 123 123 127 130 130 136 137 128 128 129 128 125 119 111 101 92 75 47 357 325 305 293 285 281 281 281 281 281 281 281 281 281 281 281 282 284 286 289 289 290 291
147 153 157 166 172 158 162 160 160 147 146 146 142 139 141 138 143 149 147 138 135 133 129 122 113 103 89 70 33 6 345 327 313 304 298 296 295 294 292 291 290 289 288 287 286 287 288 289 290 290 289 286 284 284
144 149 161 170 165 161 159 158 157 149 153 150 146 147 148 149 145 146 149 145 138 127 115 104 90 73 48 8 347 334 327 320 313 310 308 303 303 303 303 301 299 298 298 298 297 296 294 294 291 286 282 281 287 294
165 155 160 164 154 157 152 154 156 151 152 149 152 152 151 144 144 155 160 147 137 125 110 97 82 52 29 11 358 350 339 332 329 326 321 318 316 314 312 310 308 307 305 303 301 300 299 295 291 291 294 299 302 304
154 135 154 156 158 158 153 154 153 152 153 152 163 154 156 153 153 162 160 149 139 132 120 84 47 27 16 7 357 349 345 344 341 335 332 330 325 319 316 314 312 308 306 304 302 299 296 294 296 299 301 302 302 303
139 143 147 150 153 154 154 155 156 161 165 163 162 172 169 172 162 157 150 148 140 118 88 51 27 13 6 1 353 348 343 339 337 334 330 326 323 319 316 314 311 308 305 302 298 294 295 298 301 302 303 303 304 305
151 154 155 158 158 159 160 163 168 172 167 168 175 174 161 148 147 146 142 134 121 101 67 32 17 5 358 351 345 340 339 339 338 335 331 329 326 322 319 317 314 310 304 298 297 297 299 302 304 305 306 306 307 310
156 160 161 165 166 168 172 173 171 165 163 165 162 152 147 143 139 137 134 125 111 86 41 17 0 354 348 344 340 338 339 338 338 337 334 330 327 324 321 318 314 308 302 297 296 297 299 302 305 307 308 310 311 313
167 166 170 174 174 171 174 169 159 152 146 136 129 131 135 135 133 132 128 118 96 48 15 357 347 342 339 337 336 336 337 338 337 336 333 329 325 322 319 317 314 309 304 301 300 301 302 304 306 309 311 313 314 315
180 179 180 181 172 167 161 155 152 151 147 145 143 141 138 136 131 124 112 93 57 18 355 341 336 333 330 331 334 336 337 336 336 335 334 331 327 322 318 315 314 314 313 311 310 309 309 311 312 314 315 315 316 316
182 179 176 174 160 158 158 152 147 143 147 147 149 147 146 143 135 125 98 46 11 353 341 332 328 326 328 332 334 335 335 336 337 338 338 337 335 333 329 324 321 321 320 320 320 320 320 320 319 319 318 317 317 317
Height
2877 2873 2870 2867 2865 2863 2861 2860 2861 2862 2863 2865 2868 2871 2876 2883 2890 2896 2904 2913 2920 2926 2932 2938 2944 2948 2952 2956 2961 2965 2970 2970 2973 2976 2978 2979 2980 2981 2982 2982 2982 2983 2987 2988 2992 2991 2990 2987 2987 2990 2990 2988 2989 2989
2870 2866 2863 2859 2855 2852 2851 2850 2850 2851 2853 2855 2858 2862 2867 2874 2882 2890 2896 2906 2916 2922 2928 2933 2937 2943 2947 2953 2957 2958 2962 2964 2967 2970 2972 2973 2976 2976 2978 2978 2979 2981 2981 2982 2984 2984 2984 2981 2983 2983 2983 2984 2984 2984
2864 2859 2854 2850 2846 2842 2840 2838 2838 2839 2841 2844 2849 2853 2858 2866 2874 2882 2890 2901 2910 2917 2923 2928 2929 2938 2942 2946 2949 2952 2954 2959 2961 2966 2967 2969 2971 2973 2974 2974 2976 2976 2977 2978 2979 2981 2983 2981 2979 2980 2979 2980 2979 2978
2859 2854 2848 2842 2837 2832 2829 2826 2825 2828 2831 2834 2839 2844 2851 2859 2868 2877 2884 2894 2905 2912 2918 2921 2928 2929 2935 2939 2943 2948 2951 2953 2957 2960 2962 2964 2967 2968 2970 2971 2972 2974 2974 2975 2975 2977 2977 2979 2974 2977 2976 2974 2974 2973
2855 2850 2844 2837 2829 2823 2818 2816 2817 2819 2822 2827 2833 2839 2847 2855 2865 2875 2885 2892 2901 2913 2914 2918 2924 2927 2932 2936 2940 2944 2946 2948 2952 2955 2957 2960 2962 2965 2965 2967 2968 2970 2971 2972 2972 2971 2971 2972 2970 2969 2970 2968 2967 2967
2852 2847 2839 2829 2819 2809 2804 2804 2808 2811 2817 2823 2830 2837 2845 2854 2863 2874 2884 2890 2899 2905 2914 2916 2920 2923 2929 2933 2937 2939 2941 2945 2949 2951 2954 2956 2959 2961 2961 2963 2963 2963 2964 2964 2964 2964 2964 2964 2964 2961 2962 2961 2960 2959
2851 2844 2835 2825 2813 2798 2790 2796 2803 2809 2815 2821 2828 2838 2846 2854 2864 2872 2878 2883 2896 2905 2912 2916 2917 2919 2926 2928 2933 2936 2938 2942 2945 2948 2950 2952 2955 2956 2956 2957 2954 2957 2958 2958 2958 2958 2957 2955 2955 2954 2955 2954 2953 2952
2850 2844 2837 2826 2814 2804 2798 2800 2805 2811 2818 2824 2832 2841 2850 2858 2868 2875 2883 2891 2897 2904 2909 2912 2915 2918 2920 2924 2929 2932 2935 2938 2940 2942 2945 2948 2951 2952 2950 2948 2949 2950 2952 2951 2951 2951 2950 2949 2947 2948 2946 2946 2946 2944
2851 2846 2840 2832 2823 2816 2812 2811 2813 2818 2824 2831 2839 2848 2856 2864 2871 2878 2887 2893 2899 2906 2907 2910 2912 2915 2917 2919 2923 2928 2931 2934 2937 2937 2941 2944 2944 2943 2941 2942 2942 2945 2947 2947 2947 2946 2944 2943 2941 2941 2940 2939 2938 2937
2852 2847 2843 2838 2832 2827 2823 2820 2822 2827 2834 2841 2849 2856 2863 2871 2876 2883 2890 2895 2900 2903 2905 2907 2909 2911 2914 2916 2921 2928 2929 2933 2931 2932 2934 2937 2938 2936 2936 2936 2937 2940 2941 2941 2940 2940 2939 2936 2935 2934 2934 2932 2930 2929
2854 2851 2848 2843 2840 2838 2837 2836 2837 2841 2847 2852 2857 2862 2870 2876 2882 2887 2892 2896 2899 2902 2903 2905 2907 2909 2912 2916 2918 2924 2924 2925 2925 2927 2930 2930 2931 2931 2930 2931 2933 2933 2932 2931 2931 2930 2930 2929 2928 2927 2926 2925 2923 2921
2857 2854 2853 2850 2848 2847 2849 2850 2852 2854 2856 2861 2862 2870 2876 2880 2885 2888 2891 2895 2897 2899 2900 2903 2905 2908 2911 2915 2919 2920 2920 2922 2923 2925 2927 2925 2923 2925 2927 2927 2927 2926 2924 2924 2923 2923 2922 2921 2920 2919 2918 2917 2917 2915
2858 2858 2856 2857 2856 2857 2858 2858 2860 2862 2867 2871 2873 2877 2879 2882 2884 2887 2889 2892 2893 2895 2899 2901 2905 2907 2910 2914 2916 2918 2919 2921 2923 2925 2923 2919 2921 2922 2922 2921 2920 2920 2919 2917 2916 2915 2914 2914 2913 2912 2911 2910 2909 2909
2859 2859 2860 2860 2860 2861 2863 2863 2866 2870 2874 2877 2878 2878 2880 2880 2882 2883 2886 2889 2892 2896 2899 2902 2905 2906 2909 2913 2914 2916 2918 2920 2920 2919 2917 2916 2916 2917 2917 2916 2916 2914 2913 2912 2911 2910 2909 2908 2907 2906 2906 2905 2905 2904
2860 2862 2863 2864 2866 2867 2870 2874 2875 2877 2878 2879 2878 2878 2878 2879 2882 2885 2888 2891 2894 2897 2900 2904 2907 2909 2910 2913 2913 2914 2915 2914 2914 2914 2914 2914 2914 2914 2913 2912 2911 2910 2909 2908 2907 2906 2905 2905 2904 2903 2903 2903 2902 2903
2861 2863 2866 2868 2870 2872 2874 2878 2881 2881 2880 2879 2880 2880 2882 2884 2886 2888 2891 2893 2896 2899 2902 2905 2907 2909 2910 2911 2911 2911 2912 2912 2912 2912 2913 2913 2913 2912 2911 2910 2909 2909 2908 2908 2907 2907 2906 2906 2905 2904 2904 2904 2904 2904
2861 2863 2866 2869 2872 2874 2876 2879 2880 2880 2881 2880 2882 2884 2886 2888 2889 2891 2893 2895 2897 2900 2902 2905 2906 2908 2909 2909 2909 2909 2909 2910 2911 2912 2912 2911 2911 2910 2910 2910 2910 2910 2910 2910 2910 2909 2909 2908 2908 2907 2907 2906 2906 2906
2860 2862 2866 2869 2873 2875 2877 2879 2881 2881 2880 2881 2884 2887 2889 2891 2892 2894 2896 2898 2900 2901 2903 2905 2905 2906 2906 2907 2907 2907 2908 2909 2910 2911 2911 2911 2912 2912 2912 2912 2913 2912 2912 2912 2912 2911 2911 2910 2910 2910 2909 2908 2907 2906
2859 2861 2865 2869 2873 2877 2879 2881 2882 2881 2883 2885 2888 2890 2892 2894 2896 2897 2898 2899 2900 2901 2903 2903 2904 2904 2905 2906 2908 2909 2911 2912 2913 2913 2914 2914 2915 2915 2915 2915 2914 2914 2914 2914 2913 2913 2912 2912 2911 2910 2909 2907 2906 2904
2857 2861 2865 2869 2874 2877 2879 2881 2882 2884 2887 2890 2892 2893 2895 2896 2898 2898 2898 2898 2899 2901 2902 2903 2904 2906 2908 2910 2911 2912 2913 2914 2914 2915 2916 2916 2916 2916 2916 2916 2915 2915 2914 2914 2913 2913 2912 2911 2910 2908 2906 2905 2904 2903
2857 2862 2867 2871 2874 2877 2879 2881 2883 2887 2888 2891 2893 2894 2895 2897 2898 2899 2900 2900 2902 2902 2904 2907 2909 2911 2912 2913 2914 2915 2915 2916 2916 2916 2916 2916 2916 2916 2915 2915 2914 2914 2913 2912 2911 2910 2909 2908 2906 2905 2904 2903 2901 2900
2859 2864 2869 2873 2876 2877 2879 2882 2885 2888 2890 2892 2894 2895 2896 2898 2900 2903 2904 2907 2907 2909 2911 2912 2913 2914 2915 2916 2916 2917 2917 2917 2917 2916 2916 2916 2915 2915 2914 2913 2913 2912 2911 2909 2908 2907 2905 2904 2903 2902 2900 2899 2898 2896
2863 2867 2871 2874 2877 2878 2882 2883 2886 2888 2891 2895 2897 2898 2901 2903 2905 2908 2910 2911 2911 2912 2914 2915 2916 2917 2917 2917 2918 2918 2918 2917 2917 2916 2915 2915 2914 2913 2912 2911 2909 2908 2907 2906 2905 2903 2902 2901 2900 2899 2897 2896 2895 2893
2867 2870 2872 2874 2876 2877 2881 2883 2886 2889 2892 2896 2898 2901 2904 2906 2909 2910 2912 2913 2914 2915 2916 2917 2918 2918 2918 2918 2918 2917 2917 2916 2915 2914 2913 2912 2911 2910 2908 2907 2906 2905 2904 2902 2901 2900 2899 2898 2897 2896 2894 2893 2892 2891
2870 2872 2874 2873 2874 2877 2880 2883 2886 2889 2893 2897 2901 2903 2906 2909 2911 2913 2914 2915 2916 2917 2918 2918 2919 2919 2919 2918 2918 2917 2916 2915 2913 2912 2911 2910 2908 2907 2905 2904 2902 2901 2900 2899 2898 2897 2896 2895 2894 2893 2892 2891 2890 2889
2867 2869 2870 2870 2873 2878 2880 2884 2888 2891 2895 2899 2903 2905 2908 2910 2911 2913 2914 2916 2917 2918 2919 2919 2919 2919 2918 2917 2916 2915 2914 2913 2912 2910 2909 2907 2905 2904 2902 2901 2899 2898 2897 2896 2895 2894 2893 2892 2891 2891 2890 2889 2888 2886
2864 2865 2866 2870 2873 2876 2881 2886 2890 2895 2899 2901 2903 2906 2908 2909 2910 2912 2914 2915 2916 2917 2918 2918 2918 2917 2916 2916 2915 2914 2912 2911 2909 2908 2906 2904 2903 2901 2900 2898 2896 2895 2894 2893 2892 2891 2890 2890 2889 2889 2888 2886 2885 2884
2863 2867 2870 2874 2877 2881 2884 2889 2893 2897 2898 2900 2904 2905 2906 2906 2909 2911 2913 2915 2916 2916 2917 2917 2917 2916 2915 2915 2914 2912 2911 2910 2908 2906 2904 2903 2901 2899 2897 2895 2894 2893 2891 2890 2890 2889 2888 2888 2887 2886 2885 2884 2882 2881
2866 2870 2875 2878 2881 2885 2888 2891 2893 2895 2897 2899 2902 2903 2904 2906 2909 2911 2913 2914 2915 2915 2916 2916 2915 2915 2914 2914 2913 2911 2910 2908 2906 2904 2902 2900 2899 2897 2895 2893 2892 2891 2890 2889 2888 2887 2886 2885 2884 2883 2882 2881 2879 2877
2869 2872 2876 2879 2883 2886 2889 2892 2894 2895 2898 2900 2902 2903 2905 2907 2909 2911 2913 2914 2915 2915 2915 2915 2914 2914 2913 2912 2910 2909 2907 2905 2904 2902 2900 2898 2897 2895 2893 2892 2890 2889 2888 2887 2886 2885 2884 2882 2881 2880 2878 2877 2875 2873
2870 2874 2878 2880 2883 2887 2890 2892 2894 2897 2900 2902 2904 2907 2908 2909 2910 2912 2913 2914 2914 2914 2914 2913 2912 2911 2911 2909 2908 2906 2905 2903 2901 2899 2897 2896 2894 2892 2891 2889 2888 2887 2885 2884 2883 2882 2881 2879 2877 2876 2874 2873 2871 2869
2872 2874 2877 2880 2883 2887 2890 2893 2895 2898 2900 2903 2905 2908 2909 2911 2912 2913 2914 2914 2914 2913 2913 2912 2911 2910 2908 2907 2905 2904 2902 2900 2898 2896 2894 2892 2891 2889 2888 2886 2885 2884 2883 2881 2880 2878 2877 2875 2874 2872 2871 2869 2867 2864
2872 2876 2879 2882 2885 2889 2892 2895 2897 2900 2903 2904 2906 2908 2909 2912 2912 2913 2913 2912 2913 2912 2911 2910 2909 2907 2906 2904 2903 2901 2899 2898 2896 2894 2892 2890 2888 2887 2885 2884 2883 2881 2880 2878 2877 2875 2874 2872 2870 2868 2866 2864 2862 2859